Stations météo

réclame
Mon MeteoGroup
Hoorn-A, Pays-Bas (6212): Température de l'air & dewpoint: 17.01.2020 01:00:00 - 23.01.2020 01:00:00 (CET)Hoorn-A, Pays-Bas (6212): Vitesse du vent & gusts: 17.01.2020 01:00:00 - 23.01.2020 01:00:00 (CET)Hoorn-A, Pays-Bas (6212): Direction du vent: 17.01.2020 01:00:00 - 23.01.2020 01:00:00 (CET)Hoorn-A, Pays-Bas (6212): reduced air pressure: 17.01.2020 01:00:00 - 23.01.2020 01:00:00 (CET)Hoorn-A, Pays-Bas (6212): visibility: 17.01.2020 01:00:00 - 23.01.2020 01:00:00 (CET)
Date & Time tt [°C] td [°C] ff [km/h] ff [knt] fx [km/h] fx [knt] dd ppp [hPa] vv [km]
23.01.2020 01:00:00 8,0 7,7 4 2 - - SW 1036,1 3,3
23.01.2020 00:00:00 8,0 7,7 5 3 7 4 SE 1036,3 1,2
22.01.2020 23:00:00 8,0 7,7 4 2 7 4 - 1036,4 0,8
22.01.2020 22:00:00 8,0 7,7 2 1 7 4 - 1036,2 9
22.01.2020 21:00:00 8,0 7,8 8 4 7 4 NNW 1036,6 6
22.01.2020 20:00:00 8,1 7,9 5 3 7 4 - 1036,4 0,8
22.01.2020 19:00:00 7,9 7,9 4 2 4 2 W 1036,3 1,0
22.01.2020 18:00:00 7,9 7,4 4 2 7 4 W 1036,2 2,0
22.01.2020 17:00:00 7,9 7,3 5 3 11 6 NW 1036,1 10
22.01.2020 16:00:00 7,8 7,0 13 7 22 12 WNW 1036,0 10
22.01.2020 15:00:00 7,9 7,1 18 10 18 10 NW 1036,1 10
22.01.2020 14:00:00 8,4 7,2 9 5 11 6 NW 1036,3 10
22.01.2020 13:00:00 8,2 7,6 15 8 14 8 NW 1036,5 5
22.01.2020 12:00:00 8,2 7,6 16 9 22 12 NW 1036,9 4,9
22.01.2020 11:00:00 8,1 7,4 21 11 22 12 WNW 1037,0 3,8
22.01.2020 10:00:00 7,9 7,6 11 6 22 12 WNW 1036,4 3,7
22.01.2020 09:00:00 7,7 7,2 22 12 22 12 W 1036,3 2,9
22.01.2020 08:00:00 7,5 6,7 28 15 29 16 W 1035,9 5
22.01.2020 07:00:00 7,4 6,7 26 14 25 14 W 1035,7 9
22.01.2020 06:00:00 7,3 6,4 24 13 25 14 WSW 1035,8 10
22.01.2020 05:00:00 7,3 5,8 24 13 25 14 W 1036,1 10
22.01.2020 04:00:00 7,0 5,3 21 11 22 12 WSW 1036,5 10
22.01.2020 03:00:00 6,8 5,4 24 13 22 12 WSW 1037,0 9
22.01.2020 02:00:00 7,0 4,5 18 10 22 12 WSW 1037,2 10
22.01.2020 01:00:00 7,0 4,4 15 8 22 12 WSW 1037,7 10
22.01.2020 00:00:00 6,9 4,2 18 10 22 12 WSW 1037,9 10
21.01.2020 23:00:00 6,7 4,2 11 6 14 8 SW 1038,1 10
21.01.2020 22:00:00 6,4 3,8 13 7 22 12 WSW 1038,3 10
21.01.2020 21:00:00 6,5 3,7 13 7 25 14 SW 1038,4 10
21.01.2020 20:00:00 6,4 3,7 22 12 29 16 WSW 1039,1 10
21.01.2020 19:00:00 6,2 3,7 21 11 25 14 SW 1038,7 10
21.01.2020 18:00:00 5,8 3,5 18 10 22 12 SW 1038,8 10
21.01.2020 17:00:00 6,2 3,8 21 11 25 14 SW 1038,8 10
21.01.2020 16:00:00 6,5 3,5 21 11 25 14 SW 1039,4 10
21.01.2020 15:00:00 6,8 3,4 28 15 29 16 SW 1039,7 10
21.01.2020 14:00:00 6,8 3,5 28 15 29 16 SSW 1039,9 10
21.01.2020 13:00:00 6,9 4,0 26 14 29 16 SW 1040,6 10
21.01.2020 12:00:00 6,9 3,7 26 14 29 16 SW 1041,0 10
21.01.2020 11:00:00 7,1 3,8 29 16 32 18 SSW 1041,3 10
21.01.2020 10:00:00 7,3 4,0 31 17 32 18 SSW 1041,2 10
21.01.2020 09:00:00 7,5 4,1 34 18 32 18 SSW 1040,8 10
21.01.2020 08:00:00 7,5 4,5 31 17 32 18 SSW 1040,6 10
21.01.2020 07:00:00 7,4 4,5 31 17 32 18 S 1040,7 10
21.01.2020 06:00:00 7,3 4,6 29 16 29 16 S 1040,9 10
21.01.2020 05:00:00 7,3 4,9 26 14 25 14 SSW 1041,3 10
21.01.2020 04:00:00 7,4 4,7 28 15 25 14 S 1041,7 10
21.01.2020 03:00:00 7,6 4,2 24 13 22 12 S 1042,3 10
21.01.2020 02:00:00 7,7 2,8 26 14 25 14 SSW 1042,7 10
21.01.2020 01:00:00 7,9 3,6 29 16 29 16 SSW 1043,0 10
21.01.2020 00:00:00 8,1 3,7 24 13 25 14 SSW 1043,4 10
20.01.2020 23:00:00 7,9 4,1 26 14 25 14 SSW 1043,6 10
20.01.2020 22:00:00 7,6 4,1 24 13 25 14 SSW 1043,9 10
20.01.2020 21:00:00 7,7 3,8 24 13 25 14 SSW 1044,4 10
20.01.2020 20:00:00 7,7 3,6 22 12 22 12 SSW 1044,5 10
20.01.2020 19:00:00 7,9 3,7 24 13 25 14 SW 1044,5 10
20.01.2020 18:00:00 7,7 3,9 24 13 25 14 SW 1044,6 10
20.01.2020 17:00:00 7,8 4,9 24 13 25 14 SSW 1045,0 10
20.01.2020 16:00:00 8,0 3,8 26 14 25 14 SSW 1045,3 10
20.01.2020 15:00:00 7,9 3,6 24 13 25 14 SSW 1045,4 10
20.01.2020 14:00:00 7,8 3,7 22 12 22 12 SSW 1046,1 10
20.01.2020 13:00:00 7,8 4,1 21 11 22 12 SSW 1046,4 10
20.01.2020 12:00:00 8,0 4,4 22 12 22 12 SW 1046,9 10
20.01.2020 11:00:00 8,0 3,0 21 11 22 12 SW 1046,8 10
20.01.2020 10:00:00 8,0 3,2 18 10 22 12 SW 1046,8 10
20.01.2020 09:00:00 7,8 3,1 18 10 22 12 WSW 1046,7 10
20.01.2020 08:00:00 7,7 3,0 24 13 25 14 W 1046,5 10
20.01.2020 07:00:00 7,6 3,7 28 15 29 16 W 1046,4 10
20.01.2020 06:00:00 7,6 2,1 22 12 25 14 WSW 1046,2 10
20.01.2020 05:00:00 7,5 3,7 24 13 25 14 W 1046,5 10
20.01.2020 04:00:00 7,4 3,5 24 13 25 14 W 1046,6 10
20.01.2020 03:00:00 7,5 3,7 24 13 25 14 W 1047,0 10
20.01.2020 02:00:00 7,7 2,9 26 14 25 14 W 1047,0 10
20.01.2020 01:00:00 7,8 2,8 22 12 22 12 W 1046,9 10
20.01.2020 00:00:00 7,7 1,7 13 7 22 12 W 1046,6 10
19.01.2020 23:00:00 7,5 2,9 21 11 29 16 WNW 1046,7 10
19.01.2020 22:00:00 7,5 3,5 24 13 29 16 WNW 1046,6 10
19.01.2020 21:00:00 7,5 3,9 22 12 25 14 WNW 1046,2 10
19.01.2020 20:00:00 7,5 4,0 31 17 32 18 WNW 1045,7 10
19.01.2020 19:00:00 7,7 4,2 31 17 32 18 NW 1045,0 10
19.01.2020 18:00:00 7,7 4,6 37 20 36 19 NW 1044,6 -
19.01.2020 17:00:00 7,8 4,3 29 16 32 18 NW 1043,9 10
19.01.2020 16:00:00 7,9 4,3 35 19 36 19 NW 1043,0 10
19.01.2020 15:00:00 7,9 4,4 41 22 40 21 NW 1042,1 10
19.01.2020 14:00:00 8,1 4,0 41 22 43 23 NW 1041,7 10
19.01.2020 13:00:00 8,2 3,9 41 22 40 21 NW 1041,4 10
19.01.2020 12:00:00 8,1 2,8 42 23 43 23 NW 1040,8 10
19.01.2020 11:00:00 8,2 1,1 50 27 50 27 NNW 1040,1 10
19.01.2020 10:00:00 7,9 1,6 46 25 47 25 NW 1039,1 10
19.01.2020 09:00:00 7,8 2,1 48 26 54 29 NW 1037,6 10
19.01.2020 08:00:00 7,9 0,6 52 28 50 27 NNW 1036,1 10
19.01.2020 07:00:00 7,9 2,2 50 27 50 27 NW 1035,1 10
19.01.2020 06:00:00 7,6 3,5 48 26 54 29 NW 1034,2 10
19.01.2020 05:00:00 6,9 3,1 42 23 58 31 NNW 1033,6 10
19.01.2020 04:00:00 7,3 2,4 55 30 54 29 NW 1032,9 10
19.01.2020 03:00:00 6,4 2,9 39 21 54 29 WNW 1032,6 10
19.01.2020 02:00:00 7,3 2,1 52 28 50 27 WNW 1031,6 10
19.01.2020 01:00:00 7,4 2,2 48 26 54 29 WNW 1030,9 10
19.01.2020 00:00:00 6,7 1,5 42 23 61 33 WNW 1029,9 10
18.01.2020 23:00:00 7,4 2,1 48 26 47 25 WNW 1029,6 10
18.01.2020 22:00:00 7,5 1,9 48 26 47 25 WNW 1029,0 10
18.01.2020 21:00:00 7,3 2,1 41 22 43 23 WNW 1028,7 10
18.01.2020 20:00:00 7,4 2,1 41 22 43 23 WNW 1027,8 10
18.01.2020 19:00:00 7,4 2,4 46 25 47 25 W 1027,1 10
18.01.2020 18:00:00 7,4 1,6 42 23 43 23 W 1026,0 10
18.01.2020 17:00:00 7,4 2,1 44 24 50 27 W 1025,1 10
18.01.2020 16:00:00 7,3 2,5 44 24 47 25 W 1024,2 10
18.01.2020 15:00:00 7,4 1,9 41 22 43 23 W 1023,5 10
18.01.2020 14:00:00 6,6 2,1 41 22 50 27 W 1023,3 10
18.01.2020 13:00:00 5,6 1,9 50 27 58 31 WNW 1022,8 10
18.01.2020 12:00:00 7,1 1,3 44 24 47 25 W 1021,9 10
18.01.2020 11:00:00 7,1 0,9 46 25 47 25 W 1021,4 10
18.01.2020 10:00:00 7,1 2,1 44 24 47 25 WSW 1020,8 10
18.01.2020 09:00:00 7,1 2,5 39 21 47 25 W 1019,7 10
18.01.2020 08:00:00 7,3 3,2 46 25 43 23 WSW 1019,0 10
18.01.2020 07:00:00 7,0 3,0 44 24 43 23 WSW 1018,4 10
18.01.2020 06:00:00 6,6 3,2 42 23 47 25 WSW 1018,0 10
18.01.2020 05:00:00 6,8 3,5 44 24 47 25 SSW 1017,4 10
18.01.2020 04:00:00 7,0 3,0 48 26 47 25 SSW 1017,2 10
18.01.2020 03:00:00 7,2 3,3 46 25 47 25 SSW 1017,0 10
18.01.2020 02:00:00 7,3 2,9 48 26 47 25 SSW 1016,6 10
18.01.2020 01:00:00 7,5 2,8 52 28 50 27 SW 1016,2 10
18.01.2020 00:00:00 7,5 2,9 54 29 54 29 SW 1015,6 10
17.01.2020 23:00:00 7,5 2,9 59 32 61 33 SW 1014,9 10
17.01.2020 22:00:00 6,2 3,3 54 29 68 37 WSW 1014,5 10
17.01.2020 21:00:00 6,8 2,1 70 38 68 37 WSW 1013,5 10
17.01.2020 20:00:00 6,3 4,2 61 33 65 35 WSW 1012,2 10
17.01.2020 19:00:00 8,3 4,8 52 28 58 31 SSW 1010,5 10
17.01.2020 18:00:00 9,3 5,5 48 26 54 29 SSW 1010,2 10
17.01.2020 17:00:00 9,5 6,2 50 27 54 29 S 1009,6 10
17.01.2020 16:00:00 9,6 7,3 42 23 47 25 S 1009,7 10
17.01.2020 15:00:00 9,2 7,0 42 23 54 29 S 1009,5 10
17.01.2020 14:00:00 9,3 8,1 46 25 50 27 S 1009,6 10
17.01.2020 13:00:00 9,0 8,0 44 24 43 23 SSE 1010,0 10
17.01.2020 12:00:00 8,9 7,9 44 24 43 23 SSE 1010,4 10
17.01.2020 11:00:00 8,8 8,0 41 22 40 21 SSE 1010,8 10
17.01.2020 10:00:00 8,8 8,1 37 20 40 21 S 1010,9 8
17.01.2020 09:00:00 8,8 8,4 35 19 40 21 S 1010,8 6
17.01.2020 08:00:00 8,5 7,7 39 21 40 21 S 1010,7 7
17.01.2020 07:00:00 9,4 6,8 46 25 54 29 SSE 1010,8 10
17.01.2020 06:00:00 9,4 6,4 44 24 47 25 SSE 1010,6 10
17.01.2020 05:00:00 9,9 6,2 48 26 50 27 SSE 1011,1 10
17.01.2020 04:00:00 10,0 6,3 54 29 54 29 SSE 1011,8 10
17.01.2020 03:00:00 10,2 6,4 55 30 58 31 SSE 1012,4 10
17.01.2020 02:00:00 10,2 6,5 59 32 61 33 SSE 1012,6 10
17.01.2020 01:00:00 10,1 6,7 57 31 61 33 SSE 1013,2 10

tt = Température de l'air
td = dewpoint
ff = Vitesse du vent
fx = gusts
dd = Direction du vent
ppp = reduced air pressure
vv = visibility

stations d'obs. à proximité